Owensboro, KY

11:37 AM CDT on June 27, 2017 (GMT -0500)
Owensboro-Daviess County

Weather History for KOWB - April, 2013

Change the Weather History Date:

Thursday, April 18, 2013

  Actual Average Record
Temperature  
Mean Temperature 67 °F -  
Max Temperature 81 °F 72 °F 86 °F (1971)
Min Temperature 52 °F 47 °F 28 °F (2001)
Cooling Degree Days 2    
Growing Degree Days 17 (Base 50)    
Moisture  
Dew Point 62 °F    
Average Humidity 79    
Maximum Humidity 100    
Minimum Humidity 54    
Precipitation  
Precipitation 0.74 in - - ()
Sea Level Pressure  
Sea Level Pressure 29.71 in    
Wind  
Wind Speed 16 mph (SW)    
Max Wind Speed 31 mph    
Max Gust Speed 38 mph    
Visibility 7 miles    
Events Rain    
Averages and records for this station are not official NWS values.
T = Trace of Precipitation, MM = Missing Value Source: NWS Daily Summary

Daily Weather History Graph

Daily Weather History Graph

Search for Another Location

Airport or City:

Trip Planner

Search our weather history database for the weather conditions in past years. The results will help you decide how hot, cold, wet, or windy it might be!

Date:

Astronomy

Apr. 18, 2013 Rise Set
Actual Time 6:09 AM CDT 7:27 PM CDT
Civil Twilight 5:41 AM CDT 7:54 PM CDT
Nautical Twilight 5:09 AM CDT 8:27 PM CDT
Astronomical Twilight 4:35 AM CDT 9:01 PM CDT
Moon 12:21 PM CDT (4/18) 1:40 AM CDT (4/18)
Length of Visible Light 14h 12m
Length of Day
13h 18m
First Quarter, 52% of the Moon is Illuminated
Apr 18
First Quarter
Apr 25
Full
May 2
Last Quarter
May 9
New
May 17
First Quarter

Hourly Weather History & Observations

Time (CDT) Temp. Heat Index Dew Point Humidity Pressure Visibility Wind Dir Wind Speed Gust Speed Precip Events Conditions
12:56 AM 72.0 °F - 63.9 °F 76% 29.85 in 10.0 mi South 16.1 mph - N/A   Clear
1:56 AM 70.9 °F - 63.9 °F 78% 29.84 in 10.0 mi South 11.5 mph - N/A   Clear
2:56 AM 70.0 °F - 63.9 °F 81% 29.83 in 10.0 mi South 10.4 mph - N/A   Clear
3:56 AM 70.0 °F - 64.9 °F 84% 29.81 in 10.0 mi South 12.7 mph - N/A   Clear
4:56 AM 70.0 °F - 65.8 °F 87% 29.81 in 10.0 mi South 12.7 mph - N/A   Clear
5:56 AM 70.9 °F - 65.8 °F 84% 29.81 in 10.0 mi South 13.8 mph - N/A   Clear
6:56 AM 70.9 °F - 66.9 °F 87% 29.82 in 10.0 mi South 17.3 mph 23.0 mph N/A   Clear
7:56 AM 73.9 °F - 68.0 °F 82% 29.82 in 10.0 mi South 17.3 mph 25.3 mph N/A   Mostly Cloudy
8:56 AM 73.9 °F - 66.9 °F 79% 29.81 in 10.0 mi South 19.6 mph 24.2 mph N/A   Mostly Cloudy
9:56 AM 77.9 °F - 66.9 °F 69% 29.80 in 10.0 mi South 21.9 mph 32.2 mph N/A   Scattered Clouds
10:56 AM 79.0 °F - 64.9 °F 62% 29.80 in 10.0 mi South 27.6 mph 38.0 mph N/A   Scattered Clouds
11:56 AM 79.0 °F - 63.9 °F 60% 29.79 in 10.0 mi South 21.9 mph 36.8 mph N/A   Clear
12:56 PM 81.0 °F 82.2 °F 63.0 °F 54% 29.75 in 10.0 mi South 25.3 mph 38.0 mph N/A   Clear
1:56 PM 79.9 °F - 63.0 °F 56% 29.72 in 10.0 mi South 24.2 mph 34.5 mph N/A   Mostly Cloudy
2:56 PM 81.9 °F 83.5 °F 64.9 °F 56% 29.69 in 10.0 mi South 31.1 mph 36.8 mph N/A   Clear
3:56 PM 79.9 °F - 63.9 °F 58% 29.68 in 10.0 mi South 19.6 mph 28.8 mph N/A   Clear
4:56 PM 79.0 °F - 63.0 °F 58% 29.67 in 10.0 mi South 17.3 mph 24.2 mph N/A   Mostly Cloudy
5:56 PM 77.9 °F - 61.9 °F 58% 29.64 in 10.0 mi South 18.4 mph - N/A   Partly Cloudy
5:58 PM 78.8 °F - 60.8 °F 54% 29.65 in 10.0 mi South 18.4 mph 24.2 mph N/A   Partly Cloudy
6:56 PM 77.9 °F - 59.9 °F 54% 29.63 in 10.0 mi South 20.7 mph 28.8 mph N/A   Partly Cloudy
7:56 PM 75.9 °F - 59.9 °F 57% 29.63 in 10.0 mi South 15.0 mph 25.3 mph N/A   Scattered Clouds
8:56 PM 75.9 °F - 59.9 °F 57% 29.62 in 10.0 mi South 13.8 mph - 0.00 in Rain Light Rain
9:13 PM 69.8 °F - 66.2 °F 88% 29.64 in 10.0 mi WNW 10.4 mph - 0.00 in Rain Light Rain
9:56 PM 66.9 °F - 66.9 °F 100% 29.62 in 2.5 mi WNW 5.8 mph - 0.07 in Rain Heavy Rain
10:08 PM 66.2 °F - 66.2 °F 100% 29.64 in 4.0 mi West 9.2 mph - 0.02 in Rain Rain
10:28 PM 66.2 °F - 66.2 °F 100% 29.63 in 2.5 mi West 8.1 mph - 0.07 in Rain Rain
10:39 PM 64.4 °F - 62.6 °F 94% 29.64 in 2.5 mi WNW 17.3 mph 21.9 mph 0.12 in Rain Heavy Rain
10:47 PM 59.0 °F - 57.2 °F 94% 29.63 in 1.8 mi NW 17.3 mph - 0.17 in Rain Heavy Rain
10:56 PM 56.8 °F - 56.8 °F 100% 29.62 in 1.8 mi NW 12.7 mph - 0.24 in Rain Heavy Rain
11:08 PM 55.4 °F - 53.6 °F 94% 29.64 in 1.2 mi WNW 19.6 mph 35.7 mph 0.12 in Rain Heavy Rain
11:23 PM 53.6 °F - 53.6 °F 100% 29.63 in 1.8 mi NW 18.4 mph - 0.22 in Rain Heavy Rain
11:31 PM 53.6 °F - 53.6 °F 100% 29.63 in 2.5 mi NW 12.7 mph - 0.25 in Rain Heavy Rain
11:42 PM 53.6 °F - 53.6 °F 100% 29.64 in 3.0 mi NW 16.1 mph 25.3 mph 0.30 in Rain Heavy Rain
11:46 PM 53.6 °F - 51.8 °F 94% 29.64 in 2.0 mi WNW 16.1 mph 25.3 mph 0.34 in Rain Heavy Rain
11:56 PM 52.0 °F - 52.0 °F 100% 29.69 in 1.5 mi West 19.6 mph 27.6 mph 0.43 in Rain Heavy Rain